Location: Miami
(25.6830°N, 80.1700°W)
Time: 01:12:36
(UTC-04:00)

ISS - Visible Passes

Search period start: 20 January 2018 00:00
Search period end: 30 January 2018 00:00
Orbit: 402 x 407 km, 51.6° (Epoch: 20 January)

Date Brightness Start Highest point End Pass type
(mag) Time Alt. Az. Time Alt. Az. Time Alt. Az.
20 Jan -2.0 07:07:02 16° WSW 07:07:10 16° SW 07:09:18 10° SSW visible
20 Jan -2.1 20:25:25 10° SSW 20:27:07 24° S 20:27:07 24° S visible
21 Jan -1.1 06:17:31 14° SSE 06:17:31 14° SSE 06:18:03 10° SSE visible
21 Jan -1.8 19:34:23 10° SSE 19:36:13 14° SE 19:37:36 12° E visible
21 Jan -0.6 21:09:38 10° WSW 21:10:18 14° W 21:10:18 14° W visible
22 Jan -3.6 20:16:53 10° SW 20:20:05 65° NW 20:20:43 50° N visible
23 Jan -3.4 19:24:41 10° SSW 19:27:48 46° SE 19:30:57 10° NE visible
23 Jan -0.6 21:03:41 10° NW 21:03:44 10° NW 21:03:44 10° NW visible
24 Jan -1.6 20:09:22 10° W 20:11:54 21° NW 20:13:59 12° N visible
